Location: Most
(50.5133°N, 13.6207°E)
Time: 14:15:25
(UTC+01:00)

UNHA 3 R/B - Pass Details

Date: 21 September 2020
Orbit: 479 x 556 km, 97.4° (Epoch: 27 October)

Event Time Altitude Azimuth Distance (km) Brightness Sun altitude
Rises 04:00:48 0° 33° (NNE) 2,612 9.9 -25.9°
Reaches altitude 10° 04:04:28 10° 72° (ENE) 1,741 8.8 -25.5°
Maximum altitude 04:05:28 11° 88° (E) 1,691 8.5 -25.4°
Drops below altitude 10° 04:06:28 10° 103° (ESE) 1,749 8.4 -25.2°
Sets 04:10:12 0° 141° (SE) 2,652 8.9 -24.7°
